Location: Sevilla
(37.3933°N, 5.9839°W)
Time: 06:14:56
(UTC+02:00)

Transit 2A - Pass Details

Date: 26 June 2024
Orbit: 591 x 960 km, 66.7° (Epoch: 15 July)

Event Time Altitude Azimuth Distance (km) Brightness Sun altitude
Rises 23:41:04 0° 346° (NNW) 3,541 10.6 -17.8°
Reaches altitude 10° 23:44:42 10° 7° (N) 2,645 9.4 -18.3°
Maximum altitude 23:48:22 16° 44° (NE) 2,271 8.5 -18.7°
Drops below altitude 10° 23:52:06 10° 80° (E) 2,691 8.5 -19.2°
Enters shadow 23:52:38 - 84° (E) 2,806 8.6 -19.3°
Sets 23:55:49 0° 101° (E) 3,633 - -19.6°
